Time,TemperatureF,DewpointF,PressureIn,WindDirection,WindDirectionDegrees,WindSpeedMPH,WindSpeedGustMPH,Humidity,HourlyPrecipIn,Conditions,Clouds,dailyrainin,SoftwareType,DateUTC
2015-09-02 00:03:00,67.6,66.2,30.17,ENE,60,0.0,0.0,95,0.00,,,0.00,meteohub,2015-09-02 04:03:00,
2015-09-02 00:08:00,67.6,66.2,30.18,ENE,61,0.0,0.0,95,0.00,,,0.00,meteohub,2015-09-02 04:08:00,
2015-09-02 00:13:00,67.6,66.2,30.18,ENE,59,0.0,0.0,95,0.00,,,0.00,meteohub,2015-09-02 04:13:00,
2015-09-02 00:18:00,67.6,66.4,30.18,ENE,57,0.0,0.0,96,0.00,,,0.00,meteohub,2015-09-02 04:18:00,
2015-09-02 00:23:00,67.8,66.6,30.18,ENE,57,0.0,0.0,96,0.00,,,0.00,meteohub,2015-09-02 04:23:00,
2015-09-02 00:28:00,67.6,66.4,30.17,ENE,57,0.0,0.0,96,0.00,,,0.00,meteohub,2015-09-02 04:28:00,
2015-09-02 00:33:00,67.5,66.2,30.18,ENE,57,0.0,0.0,96,0.00,,,0.00,meteohub,2015-09-02 04:33:00,
2015-09-02 00:38:00,67.5,66.2,30.18,ENE,57,0.0,0.0,96,0.00,,,0.00,meteohub,2015-09-02 04:38:00,
2015-09-02 00:43:00,67.3,66.0,30.18,NE,56,0.0,0.0,96,0.00,,,0.00,meteohub,2015-09-02 04:43:00,
2015-09-02 00:48:00,67.3,66.0,30.18,ENE,57,0.0,0.0,96,0.00,,,0.00,meteohub,2015-09-02 04:48:00,
2015-09-02 00:53:00,67.3,66.0,30.18,ENE,57,0.0,0.0,96,0.00,,,0.00,meteohub,2015-09-02 04:53:00,
2015-09-02 00:58:00,67.1,65.8,30.18,ENE,57,0.0,0.0,96,0.00,,,0.00,meteohub,2015-09-02 04:58:00,
2015-09-02 01:03:00,67.1,65.8,30.18,ENE,57,0.0,0.0,96,0.00,,,0.00,meteohub,2015-09-02 05:03:00,
2015-09-02 01:08:00,67.3,66.4,30.18,ENE,57,0.0,0.0,97,0.00,,,0.00,meteohub,2015-09-02 05:08:00,
2015-09-02 01:13:00,67.3,66.4,30.18,ENE,57,0.0,0.0,97,0.00,,,0.00,meteohub,2015-09-02 05:13:00,
2015-09-02 01:18:00,67.3,66.4,30.18,ENE,57,0.0,0.0,97,0.00,,,0.00,meteohub,2015-09-02 05:18:00,
2015-09-02 01:23:00,67.3,66.0,30.18,ENE,57,0.0,0.0,96,0.00,,,0.00,meteohub,2015-09-02 05:23:00,
2015-09-02 01:28:00,66.9,65.7,30.18,ENE,57,0.0,0.0,96,0.00,,,0.00,meteohub,2015-09-02 05:28:00,
2015-09-02 01:33:00,66.7,65.5,30.18,ENE,57,0.0,0.0,96,0.00,,,0.00,meteohub,2015-09-02 05:33:00,
2015-09-02 01:38:00,66.7,65.5,30.18,ENE,57,0.0,0.0,96,0.00,,,0.00,meteohub,2015-09-02 05:38:00,
2015-09-02 01:43:00,66.7,65.8,30.18,ENE,57,0.0,0.0,97,0.00,,,0.00,meteohub,2015-09-02 05:43:00,
2015-09-02 01:48:00,66.7,65.8,30.18,NE,56,0.0,0.0,97,0.00,,,0.00,meteohub,2015-09-02 05:48:00,
2015-09-02 01:53:00,66.7,65.8,30.18,ENE,57,0.0,0.0,97,0.00,,,0.00,meteohub,2015-09-02 05:53:00,
2015-09-02 01:59:00,66.6,65.3,30.17,ENE,57,0.0,0.0,96,0.00,,,0.00,meteohub,2015-09-02 05:59:00,
2015-09-02 02:03:00,66.2,64.9,30.17,NE,56,0.0,0.0,96,0.00,,,0.00,meteohub,2015-09-02 06:03:00,
2015-09-02 02:09:00,66.4,65.5,30.17,ENE,57,0.0,0.0,97,0.00,,,0.00,meteohub,2015-09-02 06:09:00,
2015-09-02 02:14:00,66.2,65.3,30.17,ENE,65,0.0,0.0,97,0.00,,,0.00,meteohub,2015-09-02 06:14:00,
2015-09-02 02:18:00,66.2,65.3,30.17,ENE,75,0.0,0.0,97,0.00,,,0.00,meteohub,2015-09-02 06:18:00,
2015-09-02 02:23:00,66.0,65.1,30.17,ENE,75,0.0,0.0,97,0.00,,,0.00,meteohub,2015-09-02 06:23:00,
2015-09-02 02:28:00,66.0,65.1,30.17,ENE,75,0.0,0.0,97,0.00,,,0.00,meteohub,2015-09-02 06:28:00,
2015-09-02 02:38:00,66.0,65.1,30.17,ENE,75,0.0,0.0,97,0.00,,,0.00,meteohub,2015-09-02 06:38:00,
2015-09-02 02:43:00,66.0,65.1,30.17,ENE,75,0.0,0.0,97,0.00,,,0.00,meteohub,2015-09-02 06:43:00,
2015-09-02 02:48:00,66.0,65.1,30.16,ENE,75,0.0,0.0,97,0.00,,,0.00,meteohub,2015-09-02 06:48:00,
2015-09-02 02:53:00,65.8,64.9,30.17,ENE,75,0.0,0.0,97,0.00,,,0.00,meteohub,2015-09-02 06:53:00,
2015-09-02 02:58:00,65.8,64.9,30.17,ENE,75,0.0,0.0,97,0.00,,,0.00,meteohub,2015-09-02 06:58:00,
2015-09-02 03:03:00,65.8,64.9,30.17,ENE,75,0.0,0.0,97,0.00,,,0.00,meteohub,2015-09-02 07:03:00,
2015-09-02 03:09:00,65.7,64.8,30.17,ENE,75,0.0,0.0,97,0.00,,,0.00,meteohub,2015-09-02 07:09:00,
2015-09-02 03:14:00,65.7,65.1,30.17,ENE,70,0.0,0.0,98,0.00,,,0.00,meteohub,2015-09-02 07:14:00,
2015-09-02 03:19:00,65.7,65.1,30.17,North,354,0.0,0.0,98,0.00,,,0.00,meteohub,2015-09-02 07:19:00,
2015-09-02 03:24:00,65.7,65.1,30.17,North,354,0.0,0.0,98,0.00,,,0.00,meteohub,2015-09-02 07:24:00,
2015-09-02 03:29:00,65.5,64.9,30.17,North,354,0.0,0.0,98,0.00,,,0.00,meteohub,2015-09-02 07:29:00,
2015-09-02 03:34:00,65.3,64.8,30.17,North,354,0.0,0.0,98,0.00,,,0.00,meteohub,2015-09-02 07:34:00,
2015-09-02 03:39:00,65.5,64.9,30.17,North,354,0.0,0.0,98,0.00,,,0.00,meteohub,2015-09-02 07:39:00,
2015-09-02 03:44:00,65.5,64.9,30.17,North,354,0.0,0.0,98,0.00,,,0.00,meteohub,2015-09-02 07:44:00,
2015-09-02 03:49:00,65.5,64.9,30.17,North,354,0.0,0.0,98,0.00,,,0.00,meteohub,2015-09-02 07:49:00,
2015-09-02 03:54:00,65.5,64.9,30.17,North,354,0.0,0.0,98,0.00,,,0.00,meteohub,2015-09-02 07:54:00,
2015-09-02 03:59:00,65.5,64.9,30.17,North,354,0.0,0.0,98,0.00,,,0.00,meteohub,2015-09-02 07:59:00,
2015-09-02 04:04:00,65.5,64.9,30.17,North,354,0.0,0.0,98,0.00,,,0.00,meteohub,2015-09-02 08:04:00,
2015-09-02 04:09:00,65.5,64.9,30.16,North,354,0.0,0.0,98,0.00,,,0.00,meteohub,2015-09-02 08:09:00,
2015-09-02 04:14:00,65.3,64.8,30.17,North,354,0.0,0.0,98,0.00,,,0.00,meteohub,2015-09-02 08:14:00,
2015-09-02 04:19:00,65.1,64.6,30.16,North,354,0.0,0.0,98,0.00,,,0.00,meteohub,2015-09-02 08:19:00,
2015-09-02 04:24:00,64.9,64.4,30.17,North,354,0.0,0.0,98,0.00,,,0.00,meteohub,2015-09-02 08:24:00,
2015-09-02 04:29:00,64.9,64.4,30.17,North,354,0.0,0.0,98,0.00,,,0.00,meteohub,2015-09-02 08:29:00,
2015-09-02 04:34:00,64.9,64.4,30.17,North,354,0.0,0.0,98,0.00,,,0.00,meteohub,2015-09-02 08:34:00,
2015-09-02 04:39:00,64.8,64.2,30.17,North,354,0.0,0.0,98,0.00,,,0.00,meteohub,2015-09-02 08:39:00,
2015-09-02 04:44:00,64.8,64.2,30.17,North,354,0.0,0.0,98,0.00,,,0.00,meteohub,2015-09-02 08:44:00,
2015-09-02 04:50:00,64.8,64.2,30.17,North,354,0.0,0.0,98,0.00,,,0.00,meteohub,2015-09-02 08:50:00,
2015-09-02 04:55:00,64.8,64.2,30.17,North,356,0.0,0.0,98,0.00,,,0.00,meteohub,2015-09-02 08:55:00,
2015-09-02 05:00:00,64.8,64.2,30.17,North,357,0.0,0.0,98,0.00,,,0.00,meteohub,2015-09-02 09:00:00,
2015-09-02 05:05:00,64.8,64.2,30.17,NE,50,0.0,0.0,98,0.00,,,0.00,meteohub,2015-09-02 09:05:00,
2015-09-02 05:10:00,64.8,64.2,30.17,NE,50,0.0,0.0,98,0.00,,,0.00,meteohub,2015-09-02 09:10:00,
2015-09-02 05:15:00,64.8,64.2,30.17,NE,49,0.0,0.0,98,0.00,,,0.00,meteohub,2015-09-02 09:15:00,
2015-09-02 05:20:00,64.8,64.2,30.17,NE,50,0.0,0.0,98,0.00,,,0.00,meteohub,2015-09-02 09:20:00,
2015-09-02 05:24:00,64.8,64.2,30.17,NE,49,0.0,0.0,98,0.00,,,0.00,meteohub,2015-09-02 09:24:00,
2015-09-02 05:30:00,64.8,64.2,30.17,NE,49,0.0,0.0,98,0.00,,,0.00,meteohub,2015-09-02 09:30:00,
2015-09-02 05:35:00,64.8,64.2,30.17,NE,50,0.0,0.0,98,0.00,,,0.00,meteohub,2015-09-02 09:35:00,
2015-09-02 05:40:00,64.8,64.2,30.17,NE,50,0.0,0.0,98,0.00,,,0.00,meteohub,2015-09-02 09:40:00,
2015-09-02 05:45:00,64.8,64.4,30.17,NE,50,0.0,0.0,99,0.00,,,0.00,meteohub,2015-09-02 09:45:00,
2015-09-02 05:50:00,64.6,64.2,30.17,NE,50,0.0,0.0,99,0.00,,,0.00,meteohub,2015-09-02 09:50:00,
2015-09-02 05:55:00,64.6,64.0,30.17,NE,50,0.0,0.0,98,0.00,,,0.00,meteohub,2015-09-02 09:55:00,
2015-09-02 06:00:00,64.4,63.9,30.17,NE,49,0.0,0.0,98,0.00,,,0.00,meteohub,2015-09-02 10:00:00,
2015-09-02 06:05:00,64.2,63.7,30.17,NE,50,0.0,0.0,98,0.00,,,0.00,meteohub,2015-09-02 10:05:00,
2015-09-02 06:10:00,64.2,63.7,30.17,NE,50,0.0,0.0,98,0.00,,,0.00,meteohub,2015-09-02 10:10:00,
2015-09-02 06:15:00,64.2,63.7,30.17,NE,50,0.0,0.0,98,0.00,,,0.00,meteohub,2015-09-02 10:15:00,
2015-09-02 06:20:00,64.0,63.5,30.17,NE,50,0.0,0.0,98,0.00,,,0.00,meteohub,2015-09-02 10:20:00,
2015-09-02 06:25:00,64.0,63.5,30.18,NE,50,0.0,0.0,98,0.00,,,0.00,meteohub,2015-09-02 10:25:00,
2015-09-02 06:30:00,63.9,63.3,30.18,NE,49,0.0,0.0,98,0.00,,,0.00,meteohub,2015-09-02 10:30:00,
2015-09-02 06:35:00,63.7,63.1,30.18,NE,50,0.0,0.0,98,0.00,,,0.00,meteohub,2015-09-02 10:35:00,
2015-09-02 06:40:00,63.5,63.0,30.18,NE,49,0.0,0.0,98,0.00,,,0.00,meteohub,2015-09-02 10:40:00,
2015-09-02 06:45:00,63.3,62.8,30.18,NE,50,0.0,0.0,98,0.00,,,0.00,meteohub,2015-09-02 10:45:00,
2015-09-02 06:50:00,63.5,63.1,30.18,NE,50,0.0,0.0,99,0.00,,,0.00,meteohub,2015-09-02 10:50:00,
2015-09-02 06:55:00,63.7,63.3,30.18,NE,49,0.0,0.0,99,0.00,,,0.00,meteohub,2015-09-02 10:55:00,
2015-09-02 07:00:00,63.7,63.3,30.18,NE,50,0.0,0.0,99,0.00,,,0.00,meteohub,2015-09-02 11:00:00,
2015-09-02 07:05:00,63.7,63.3,30.19,NE,50,0.0,0.0,99,0.00,,,0.00,meteohub,2015-09-02 11:05:00,
2015-09-02 07:10:00,63.7,63.3,30.19,NE,50,0.0,0.0,99,0.00,,,0.00,meteohub,2015-09-02 11:10:00,
2015-09-02 07:15:00,63.7,63.3,30.19,NE,50,0.0,0.0,99,0.00,,,0.00,meteohub,2015-09-02 11:15:00,
2015-09-02 07:20:00,63.9,63.5,30.19,NE,50,0.0,0.0,99,0.00,,,0.00,meteohub,2015-09-02 11:20:00,
2015-09-02 07:25:00,63.9,63.5,30.19,NE,49,0.0,0.0,99,0.00,,,0.00,meteohub,2015-09-02 11:25:00,
2015-09-02 07:30:00,64.0,63.7,30.19,NE,50,0.0,0.0,99,0.00,,,0.00,meteohub,2015-09-02 11:30:00,
2015-09-02 07:35:00,64.2,63.9,30.19,WNW,284,0.0,0.0,99,0.00,,,0.00,meteohub,2015-09-02 11:35:00,
2015-09-02 07:40:00,64.6,64.2,30.19,WNW,282,0.0,0.0,99,0.00,,,0.00,meteohub,2015-09-02 11:40:00,
2015-09-02 07:45:00,64.8,64.4,30.20,WNW,283,0.0,0.0,99,0.00,,,0.00,meteohub,2015-09-02 11:45:00,
2015-09-02 07:50:00,64.9,64.6,30.20,WNW,283,0.0,0.0,99,0.00,,,0.00,meteohub,2015-09-02 11:50:00,
2015-09-02 07:55:00,65.5,65.1,30.20,WNW,283,0.0,0.0,99,0.00,,,0.00,meteohub,2015-09-02 11:55:00,
2015-09-02 08:00:00,65.8,65.5,30.20,WNW,283,0.0,0.0,99,0.00,,,0.00,meteohub,2015-09-02 12:00:00,
2015-09-02 08:05:00,66.4,66.0,30.20,WNW,282,0.0,0.0,99,0.00,,,0.00,meteohub,2015-09-02 12:05:00,
2015-09-02 08:10:00,66.6,66.2,30.20,WNW,283,0.0,0.0,99,0.00,,,0.00,meteohub,2015-09-02 12:10:00,
2015-09-02 08:15:00,67.3,66.9,30.20,WNW,283,0.0,0.0,99,0.00,,,0.00,meteohub,2015-09-02 12:15:00,
2015-09-02 08:20:00,68.4,68.0,30.20,WNW,283,0.0,0.0,99,0.00,,,0.00,meteohub,2015-09-02 12:20:00,
2015-09-02 08:25:00,68.7,68.4,30.20,WNW,283,0.0,0.0,99,0.00,,,0.00,meteohub,2015-09-02 12:25:00,
2015-09-02 08:30:00,68.4,67.8,30.20,WNW,285,0.0,0.0,98,0.00,,,0.00,meteohub,2015-09-02 12:30:00,
2015-09-02 08:35:00,67.6,66.7,30.20,WNW,285,0.0,0.0,97,0.00,,,0.00,meteohub,2015-09-02 12:35:00,
2015-09-02 08:41:00,67.5,66.6,30.20,WNW,285,0.0,0.0,97,0.00,,,0.00,meteohub,2015-09-02 12:41:00,
2015-09-02 08:46:00,67.6,66.7,30.20,WNW,285,0.0,0.0,97,0.00,,,0.00,meteohub,2015-09-02 12:46:00,
2015-09-02 08:51:00,68.5,68.0,30.20,WNW,285,0.0,0.0,98,0.00,,,0.00,meteohub,2015-09-02 12:51:00,
2015-09-02 08:56:00,70.2,69.6,30.20,WNW,285,0.0,0.0,98,0.00,,,0.00,meteohub,2015-09-02 12:56:00,
2015-09-02 09:01:00,71.2,70.3,30.20,WNW,285,0.0,0.0,97,0.00,,,0.00,meteohub,2015-09-02 13:01:00,
2015-09-02 09:06:00,72.1,70.9,30.20,WNW,285,0.0,0.0,96,0.00,,,0.00,meteohub,2015-09-02 13:06:00,
2015-09-02 09:11:00,73.0,71.6,30.20,WNW,285,0.0,0.0,95,0.00,,,0.00,meteohub,2015-09-02 13:11:00,
2015-09-02 09:16:00,73.8,71.6,30.20,SW,233,0.0,0.0,93,0.00,,,0.00,meteohub,2015-09-02 13:16:00,
2015-09-02 09:21:00,73.9,71.1,30.20,WSW,245,0.0,0.0,91,0.00,,,0.00,meteohub,2015-09-02 13:21:00,
2015-09-02 09:26:00,74.5,72.0,30.20,South,187,2.0,4.0,92,0.00,,,0.00,meteohub,2015-09-02 13:26:00,
2015-09-02 09:31:00,75.0,72.1,30.20,SW,214,3.0,5.0,91,0.00,,,0.00,meteohub,2015-09-02 13:31:00,
2015-09-02 09:36:00,75.4,72.3,30.20,WSW,242,2.0,5.0,90,0.00,,,0.00,meteohub,2015-09-02 13:36:00,
2015-09-02 09:40:00,75.6,72.5,30.20,WSW,246,1.0,5.0,90,0.00,,,0.00,meteohub,2015-09-02 13:40:00,
2015-09-02 09:41:00,75.6,72.5,30.20,WSW,255,2.0,5.0,90,0.00,,,0.00,meteohub,2015-09-02 13:41:00,
2015-09-02 09:43:00,75.6,72.1,30.19,SSW,207,3.0,5.0,89,0.00,,,0.00,meteohub,2015-09-02 13:43:00,
2015-09-02 09:48:00,75.6,72.5,30.19,West,266,4.0,6.0,90,0.00,,,0.00,meteohub,2015-09-02 13:48:00,
2015-09-02 09:53:00,75.4,72.0,30.19,WSW,253,3.0,6.0,89,0.00,,,0.00,meteohub,2015-09-02 13:53:00,
2015-09-02 09:58:00,75.6,72.5,30.20,SW,229,1.0,7.0,90,0.00,,,0.00,meteohub,2015-09-02 13:58:00,
2015-09-02 10:03:00,75.9,72.9,30.20,South,177,4.0,7.0,90,0.00,,,0.00,meteohub,2015-09-02 14:03:00,
2015-09-02 10:08:00,76.5,73.2,30.20,South,187,4.0,7.0,90,0.00,,,0.00,meteohub,2015-09-02 14:08:00,
2015-09-02 10:13:00,76.8,73.4,30.20,South,177,1.0,5.0,89,0.00,,,0.00,meteohub,2015-09-02 14:13:00,
2015-09-02 10:18:00,77.2,73.8,30.20,West,266,3.0,6.0,89,0.00,,,0.00,meteohub,2015-09-02 14:18:00,
2015-09-02 10:23:00,77.5,73.8,30.20,WSW,239,4.0,6.0,88,0.00,,,0.00,meteohub,2015-09-02 14:23:00,
2015-09-02 10:28:00,77.5,73.8,30.20,WSW,242,6.0,6.0,88,0.00,,,0.00,meteohub,2015-09-02 14:28:00,
2015-09-02 10:33:00,77.4,73.6,30.20,WSW,252,4.0,8.0,88,0.00,,,0.00,meteohub,2015-09-02 14:33:00,
2015-09-02 10:38:00,77.4,73.6,30.20,West,270,9.0,9.0,88,0.00,,,0.00,meteohub,2015-09-02 14:38:00,
2015-09-02 10:43:00,77.5,73.8,30.20,SW,236,5.0,9.0,88,0.00,,,0.00,meteohub,2015-09-02 14:43:00,
2015-09-02 10:48:00,77.7,73.6,30.20,WSW,239,4.0,11.0,87,0.00,,,0.00,meteohub,2015-09-02 14:48:00,
2015-09-02 10:53:00,78.3,74.1,30.20,SW,226,4.0,11.0,87,0.00,,,0.00,meteohub,2015-09-02 14:53:00,
2015-09-02 10:58:00,78.6,74.1,30.20,WSW,243,6.0,8.0,86,0.00,,,0.00,meteohub,2015-09-02 14:58:00,
2015-09-02 11:03:00,79.3,74.8,30.20,West,280,6.0,8.0,86,0.00,,,0.00,meteohub,2015-09-02 15:03:00,
2015-09-02 11:09:00,79.7,74.8,30.20,SW,217,4.0,7.0,85,0.00,,,0.00,meteohub,2015-09-02 15:09:00,
2015-09-02 11:14:00,80.1,74.5,30.20,WSW,242,7.0,7.0,83,0.00,,,0.00,meteohub,2015-09-02 15:14:00,
2015-09-02 11:19:00,80.8,73.9,30.19,WSW,257,7.0,10.0,80,0.00,,,0.00,meteohub,2015-09-02 15:19:00,
2015-09-02 11:24:00,80.8,73.9,30.19,WSW,252,6.0,10.0,80,0.00,,,0.00,meteohub,2015-09-02 15:24:00,
2015-09-02 11:29:00,81.1,74.3,30.19,WSW,255,5.0,10.0,80,0.00,,,0.00,meteohub,2015-09-02 15:29:00,
2015-09-02 11:34:00,81.5,74.3,30.19,West,278,7.0,11.0,79,0.00,,,0.00,meteohub,2015-09-02 15:34:00,
2015-09-02 11:39:00,81.9,73.9,30.19,SW,231,4.0,12.0,77,0.00,,,0.00,meteohub,2015-09-02 15:39:00,
2015-09-02 11:44:00,82.2,74.3,30.19,WSW,255,9.0,12.0,77,0.00,,,0.00,meteohub,2015-09-02 15:44:00,
2015-09-02 11:49:00,82.0,73.8,30.19,WSW,252,6.0,12.0,76,0.00,,,0.00,meteohub,2015-09-02 15:49:00,
2015-09-02 11:54:00,82.0,73.8,30.19,WNW,298,4.0,13.0,76,0.00,,,0.00,meteohub,2015-09-02 15:54:00,
2015-09-02 11:59:00,82.2,74.3,30.19,WNW,297,4.0,13.0,77,0.00,,,0.00,meteohub,2015-09-02 15:59:00,
2015-09-02 12:04:00,82.9,74.7,30.18,WSW,257,4.0,13.0,76,0.00,,,0.00,meteohub,2015-09-02 16:04:00,
2015-09-02 12:09:00,83.7,74.5,30.19,West,260,8.0,9.0,74,0.00,,,0.00,meteohub,2015-09-02 16:09:00,
2015-09-02 12:14:00,83.1,74.3,30.19,WSW,257,3.0,13.0,75,0.00,,,0.00,meteohub,2015-09-02 16:14:00,
2015-09-02 12:19:00,82.8,73.9,30.18,WSW,257,6.0,13.0,75,0.00,,,0.00,meteohub,2015-09-02 16:19:00,
2015-09-02 12:24:00,82.9,74.7,30.18,WSW,248,5.0,13.0,76,0.00,,,0.00,meteohub,2015-09-02 16:24:00,
2015-09-02 12:29:00,83.7,74.5,30.18,SW,222,10.0,10.0,74,0.00,,,0.00,meteohub,2015-09-02 16:29:00,
2015-09-02 12:34:00,84.0,74.8,30.18,West,273,3.0,10.0,74,0.00,,,0.00,meteohub,2015-09-02 16:34:00,
2015-09-02 12:39:00,84.2,75.0,30.18,NW,307,7.0,11.0,74,0.00,,,0.00,meteohub,2015-09-02 16:39:00,
2015-09-02 12:44:00,83.8,74.3,30.17,WSW,239,4.0,11.0,73,0.00,,,0.00,meteohub,2015-09-02 16:44:00,
2015-09-02 12:49:00,83.8,74.7,30.17,NW,304,2.0,9.0,74,0.00,,,0.00,meteohub,2015-09-02 16:49:00,
2015-09-02 12:54:00,84.7,75.2,30.17,WSW,241,4.0,8.0,73,0.00,,,0.00,meteohub,2015-09-02 16:54:00,
2015-09-02 12:59:00,84.9,74.8,30.17,SSW,198,8.0,8.0,72,0.00,,,0.00,meteohub,2015-09-02 16:59:00,
2015-09-02 13:04:00,85.1,75.0,30.17,SW,224,0.0,8.0,72,0.00,,,0.00,meteohub,2015-09-02 17:04:00,
2015-09-02 13:09:00,85.8,75.4,30.16,NW,306,4.0,8.0,71,0.00,,,0.00,meteohub,2015-09-02 17:09:00,
2015-09-02 13:14:00,85.6,75.6,30.16,West,279,3.0,8.0,72,0.00,,,0.00,meteohub,2015-09-02 17:14:00,
2015-09-02 13:19:00,85.6,75.6,30.16,WSW,249,4.0,7.0,72,0.00,,,0.00,meteohub,2015-09-02 17:19:00,
2015-09-02 13:24:00,85.8,75.4,30.16,WSW,250,6.0,7.0,71,0.00,,,0.00,meteohub,2015-09-02 17:24:00,
2015-09-02 13:29:00,85.6,75.2,30.15,SSW,210,4.0,6.0,71,0.00,,,0.00,meteohub,2015-09-02 17:29:00,
2015-09-02 13:34:00,86.0,75.6,30.15,SSW,210,2.0,10.0,71,0.00,,,0.00,meteohub,2015-09-02 17:34:00,
2015-09-02 13:39:00,86.4,75.9,30.15,WSW,242,3.0,10.0,71,0.00,,,0.00,meteohub,2015-09-02 17:39:00,
2015-09-02 13:44:00,86.7,74.8,30.15,SW,236,5.0,7.0,68,0.00,,,0.00,meteohub,2015-09-02 17:44:00,
2015-09-02 13:49:00,86.2,74.8,30.14,South,177,4.0,9.0,69,0.00,,,0.00,meteohub,2015-09-02 17:49:00,
2015-09-02 13:55:00,86.2,75.2,30.14,SW,216,6.0,9.0,70,0.00,,,0.00,meteohub,2015-09-02 17:55:00,
2015-09-02 14:00:00,86.4,75.0,30.14,West,259,8.0,9.0,69,0.00,,,0.00,meteohub,2015-09-02 18:00:00,
2015-09-02 14:05:00,86.4,74.5,30.13,SSW,193,6.0,11.0,68,0.00,,,0.00,meteohub,2015-09-02 18:05:00,
2015-09-02 14:10:00,86.2,74.8,30.14,SSW,201,2.0,11.0,69,0.00,,,0.00,meteohub,2015-09-02 18:10:00,
2015-09-02 14:15:00,86.2,75.2,30.14,SW,217,4.0,12.0,70,0.00,,,0.00,meteohub,2015-09-02 18:15:00,
2015-09-02 14:20:00,85.6,74.7,30.13,SSW,212,8.0,13.0,70,0.00,,,0.00,meteohub,2015-09-02 18:20:00,
2015-09-02 14:25:00,85.1,75.4,30.13,West,260,6.0,13.0,73,0.00,,,0.00,meteohub,2015-09-02 18:25:00,
2015-09-02 14:30:00,84.7,74.7,30.13,West,264,3.0,13.0,72,0.00,,,0.00,meteohub,2015-09-02 18:30:00,
2015-09-02 14:35:00,85.5,75.0,30.15,NNE,27,1.0,13.0,71,0.00,,,0.00,meteohub,2015-09-02 18:35:00,
2015-09-02 14:40:00,83.7,71.6,30.15,NE,53,25.0,25.0,67,0.00,,,0.00,meteohub,2015-09-02 18:40:00,
2015-09-02 14:45:00,77.9,69.8,30.15,East,84,18.0,30.0,76,0.00,,,0.00,meteohub,2015-09-02 18:45:00,
2015-09-02 14:50:00,74.8,69.3,30.15,NE,42,10.0,30.0,83,0.00,,,0.00,meteohub,2015-09-02 18:50:00,
2015-09-02 14:55:00,74.8,69.3,30.15,East,91,11.0,30.0,83,0.00,,,0.00,meteohub,2015-09-02 18:55:00,
2015-09-02 15:00:00,75.4,68.4,30.14,ENE,57,4.0,24.0,79,0.00,,,0.00,meteohub,2015-09-02 19:00:00,
2015-09-02 15:05:00,75.7,69.4,30.14,East,96,9.0,20.0,81,0.00,,,0.00,meteohub,2015-09-02 19:05:00,
2015-09-02 15:10:00,76.6,70.0,30.13,ESE,105,9.0,20.0,80,0.00,,,0.00,meteohub,2015-09-02 19:10:00,
2015-09-02 15:15:00,77.4,70.3,30.13,ESE,118,10.0,14.0,79,0.00,,,0.00,meteohub,2015-09-02 19:15:00,
2015-09-02 15:20:00,77.5,68.9,30.13,East,90,13.0,15.0,75,0.00,,,0.00,meteohub,2015-09-02 19:20:00,
2015-09-02 15:25:00,77.9,69.8,30.13,East,97,11.0,16.0,76,0.00,,,0.00,meteohub,2015-09-02 19:25:00,
2015-09-02 15:30:00,78.6,69.6,30.12,ESE,105,14.0,16.0,74,0.00,,,0.00,meteohub,2015-09-02 19:30:00,
2015-09-02 15:35:00,79.0,70.0,30.12,East,87,12.0,16.0,74,0.00,,,0.00,meteohub,2015-09-02 19:35:00,
2015-09-02 15:41:00,79.7,70.3,30.11,ESE,115,11.0,16.0,73,0.00,,,0.00,meteohub,2015-09-02 19:41:00,
2015-09-02 15:46:00,80.8,72.1,30.11,SE,139,4.0,16.0,75,0.00,,,0.00,meteohub,2015-09-02 19:46:00,
2015-09-02 15:51:00,81.1,71.6,30.11,SE,146,4.0,15.0,73,0.00,,,0.00,meteohub,2015-09-02 19:51:00,
2015-09-02 15:56:00,80.8,70.5,30.10,ESE,119,10.0,13.0,71,0.00,,,0.00,meteohub,2015-09-02 19:56:00,
2015-09-02 16:01:00,80.8,71.8,30.10,ESE,117,5.0,11.0,74,0.00,,,0.00,meteohub,2015-09-02 20:01:00,
2015-09-02 16:06:00,81.0,71.4,30.11,East,93,3.0,11.0,73,0.00,,,0.00,meteohub,2015-09-02 20:06:00,
2015-09-02 16:11:00,81.1,71.2,30.11,East,98,1.0,10.0,72,0.00,,,0.00,meteohub,2015-09-02 20:11:00,
2015-09-02 16:16:00,81.7,73.0,30.11,NW,316,5.0,5.0,75,0.00,,,0.00,meteohub,2015-09-02 20:16:00,
2015-09-02 16:21:00,79.9,70.5,30.13,North,357,7.0,14.0,73,0.00,,,0.00,meteohub,2015-09-02 20:21:00,
2015-09-02 16:26:00,77.0,69.6,30.13,NW,326,10.0,19.0,78,0.00,,,0.00,meteohub,2015-09-02 20:26:00,
2015-09-02 16:31:00,75.0,68.4,30.13,NNE,19,2.0,23.0,80,0.00,,,0.00,meteohub,2015-09-02 20:31:00,
2015-09-02 16:36:00,74.1,68.5,30.13,NW,315,6.0,23.0,83,0.00,,,0.00,meteohub,2015-09-02 20:36:00,
2015-09-02 16:41:00,73.4,68.2,30.12,NW,323,6.0,15.0,84,0.00,,,0.00,meteohub,2015-09-02 20:41:00,
2015-09-02 16:46:00,72.9,68.0,30.12,NNE,21,0.0,13.0,85,0.00,,,0.00,meteohub,2015-09-02 20:46:00,
2015-09-02 16:51:00,72.7,68.5,30.12,WSW,239,1.0,9.0,87,0.00,,,0.00,meteohub,2015-09-02 20:51:00,
2015-09-02 16:56:00,72.1,68.4,30.11,ENE,57,4.0,9.0,88,0.00,,,0.00,meteohub,2015-09-02 20:56:00,
2015-09-02 17:01:00,71.8,68.7,30.10,NE,54,6.0,8.0,90,0.00,,,0.00,meteohub,2015-09-02 21:01:00,
2015-09-02 17:06:00,71.4,68.9,30.10,SW,219,5.0,8.0,92,0.00,,,0.00,meteohub,2015-09-02 21:06:00,
2015-09-02 17:11:00,71.6,69.1,30.10,East,84,3.0,8.0,92,0.00,,,0.00,meteohub,2015-09-02 21:11:00,
2015-09-02 17:16:00,72.1,70.0,30.09,SE,134,1.0,7.0,93,0.00,,,0.00,meteohub,2015-09-02 21:16:00,
2015-09-02 17:21:00,72.1,69.4,30.09,West,279,1.0,7.0,91,0.00,,,0.00,meteohub,2015-09-02 21:21:00,
2015-09-02 17:26:00,72.7,70.2,30.09,NNE,12,1.0,4.0,92,0.00,,,0.00,meteohub,2015-09-02 21:26:00,
2015-09-02 17:31:00,72.9,70.2,30.09,ENE,63,2.0,3.0,91,0.00,,,0.00,meteohub,2015-09-02 21:31:00,
2015-09-02 17:36:00,73.2,70.5,30.08,East,81,0.0,3.0,91,0.00,,,0.00,meteohub,2015-09-02 21:36:00,
2015-09-02 17:41:00,74.1,71.2,30.08,NE,53,0.0,3.0,91,0.00,,,0.00,meteohub,2015-09-02 21:41:00,
2015-09-02 17:46:00,75.0,72.0,30.08,East,84,0.0,3.0,90,0.00,,,0.00,meteohub,2015-09-02 21:46:00,
2015-09-02 17:51:00,75.7,72.0,30.08,ESE,120,0.0,1.0,88,0.00,,,0.00,meteohub,2015-09-02 21:51:00,
2015-09-02 17:56:00,76.5,72.3,30.08,ESE,120,0.0,1.0,87,0.00,,,0.00,meteohub,2015-09-02 21:56:00,
2015-09-02 18:01:00,77.2,72.7,30.08,ESE,119,0.0,1.0,86,0.00,,,0.00,meteohub,2015-09-02 22:01:00,
2015-09-02 18:06:00,77.5,72.3,30.08,East,93,0.0,2.0,84,0.00,,,0.00,meteohub,2015-09-02 22:06:00,
2015-09-02 18:12:00,77.7,72.1,30.07,East,91,1.0,2.0,83,0.00,,,0.00,meteohub,2015-09-02 22:12:00,
2015-09-02 18:17:00,78.1,72.5,30.08,East,92,0.0,2.0,83,0.00,,,0.00,meteohub,2015-09-02 22:17:00,
2015-09-02 18:22:00,78.8,73.9,30.07,East,91,0.0,1.0,85,0.00,,,0.00,meteohub,2015-09-02 22:22:00,
2015-09-02 18:27:00,79.2,72.1,30.07,East,91,2.0,2.0,79,0.00,,,0.00,meteohub,2015-09-02 22:27:00,
2015-09-02 18:32:00,79.9,73.9,30.07,ESE,106,0.0,2.0,82,0.00,,,0.00,meteohub,2015-09-02 22:32:00,
2015-09-02 18:37:00,80.4,74.1,30.07,ESE,102,1.0,2.0,81,0.00,,,0.00,meteohub,2015-09-02 22:37:00,
2015-09-02 18:42:00,80.4,73.8,30.06,East,96,0.0,2.0,80,0.00,,,0.00,meteohub,2015-09-02 22:42:00,
2015-09-02 18:47:00,80.8,73.6,30.07,East,96,0.0,2.0,79,0.00,,,0.00,meteohub,2015-09-02 22:47:00,
2015-09-02 18:52:00,80.8,73.6,30.07,East,95,0.0,2.0,79,0.00,,,0.00,meteohub,2015-09-02 22:52:00,
2015-09-02 18:57:00,81.0,73.4,30.07,East,95,0.0,2.0,78,0.00,,,0.00,meteohub,2015-09-02 22:57:00,
2015-09-02 19:02:00,81.3,73.8,30.07,East,93,0.0,2.0,78,0.00,,,0.00,meteohub,2015-09-02 23:02:00,
2015-09-02 19:07:00,81.9,74.7,30.08,NNW,339,1.0,2.0,79,0.00,,,0.00,meteohub,2015-09-02 23:07:00,
2015-09-02 19:12:00,81.3,75.4,30.08,WNW,292,1.0,1.0,82,0.00,,,0.00,meteohub,2015-09-02 23:12:00,
2015-09-02 19:17:00,81.0,75.0,30.08,WNW,285,1.0,1.0,82,0.00,,,0.00,meteohub,2015-09-02 23:17:00,
2015-09-02 19:22:00,80.4,74.8,30.08,WNW,283,0.0,2.0,83,0.00,,,0.00,meteohub,2015-09-02 23:22:00,
2015-09-02 19:27:00,79.9,74.3,30.08,SSW,201,1.0,2.0,83,0.00,,,0.00,meteohub,2015-09-02 23:27:00,